STARLINK-37137, 68384

Orbit data source: Space-Track

STARLINK-37137, 68384 is a payload satellite owned by SpaceX/Seattle (US) in SSO that was launched on Thu, 26 Mar 2026 UTC via an FALCON 9 launch vehicle from the Air Force Western Test Range (AFWTR). Payload-class satellites include a variety of spacecraft equipped with specific instruments for various scientific and technological missions. These include communications satellites like Starlink; space stations such as the ISS; scientific satellites like the Hubble; Earth observation satellites from companies like Planet Labs, Umbra, and HawkEye 360; GPS; miniature CubeSats for education and research; and military/defense satellites.

Loading next visibility...
Identifier
68384, 2026-063E
Orbit
SSO
Country
Flag of USUS
Related business
Manufacturer
SpaceX/Seattle
Mission
Operational spacecraft
Bus & Motor
STARLINK V2MO, Unknown motor
Mass
575 kg wet, ~530 kg dry
Launch date (UTC)
2026-03-26 (3 months ago)
Launch vehicle
FALCON 9
Launch site
Air Force Western Test Range (AFWTR)
Object type
Payload
Rocket body
Debris
Shape & HBR
Unknown shape, 17.7 m
Radar Cross Section
Large (>1 m²)

Expand to show TLE details & history
Last TLE update: 7 hours ago

TLE from 7 hours ago
0 STARLINK-37137
1 68384U 26063E   26165.82320382  .00020265  00000-0  62832-3 0  9993
2 68384  97.2855 308.1328 0000044 217.1350 142.9889 15.33447110 12787
Epoch: 2026-06-14T19:45Z
TLE epoch observation values (Epoch: 2026-06-14T19:45:24.810Z)
Latitude
-0.00007°
Longitude
108.66102°
Altitude
468.673 km
Speed
7.632 km/s
True Right ascension
20h 32m 31s
True Declination
0° 00' 00"
Sunlit
Object was in full shadow at epoch
Visualization orbit readout
Latitude
Unknown
Longitude
Unknown
Altitude
Unknown
Speed
Unknown
Apparent Right ascension
Unknown
Apparent Declination
Unknown
Sunlit
N/A
Visualization observer readout
Local Sidereal Time
12:59:12
Azimuth
Unknown
Elevation
Unknown
Doppler factor
Unknown
Orbital elements
Apogee altitude
462.51 km
Perigee altitude
462.45 km
Semi-major axis
6,840.617 km
Eccentricity
0
Inclination
97.2855°
RAAN
308.1328°
Arg. of periapsis
217.135°
True anomaly
142.9892°
Mean anomaly
142.9889°
Eccentric anomaly
142.98905°
Mean motion
3.83619 °/min
Orbital period
93.84 mins
BSTAR
0.00062832
Loading maneuver chart data...
Computing Atmospheric mass density...
Loading historical data...
Loading historical data...
Loading historical data...
Loading historical data...
Loading historical data...
Loading historical data...
Loading historical data...

Documentation

Showing up to 5 results
|